Regional Weather Roundup
Issued by NWS

Home | Current Version | Previous Version | Graphics & Text | Print | Product List | Glossary Off
Versions: 1 2 3 4 5 6 7 8 9 10 11 12 13 14 15 16 17 18 19 20 21 22 23 24 25 26 27 28

000
ASUS45 KTFX 231510
RWRMT
MONTANA REGIONAL WEATHER ROUNDUP
NATIONAL WEATHER SERVICE GREAT FALLS MT
900 AM MDT SUN APR 23 2017

NOTE: "FAIR" INDICATES FEW OR NO CLOUDS BELOW 12000 FEET WITH NO
SIGNIFICANT WEATHER AND/OR OBSTRUCTIONS TO VISIBILITY.

MTZ001>007-043-231600-
WEST OF THE DIVIDE

CITY           SKY/WX    TMP DP  RH WIND       PRES   REMARKS
KALISPELL      CLOUDY    47  41  80 SE8       29.83F
MISSOULA       LGT RAIN  42  40  92 NW10      29.87F
BUTTE          CLOUDY    43  30  60 CALM      29.81F
MULLAN PASS    CLOUDY    35  32  88 VRB3      29.83F
ANACONDA         N/A     43  30  61 CALM      29.82F
DEER LODGE       N/A     43  36  75 CALM      29.85F
EUREKA           N/A     45  39  81 S5        29.82F
HAMILTON         N/A     43  41  93 NW7       29.83S
LIBBY            N/A     43  37  81 CALM      29.83F
$$

MTZ008-052>055-231600-
SOUTHWEST MONTANA

CITY           SKY/WX    TMP DP  RH WIND       PRES   REMARKS
BOZEMAN        CLOUDY    46  37  71 E5        29.81F
DILLON         MOSUNNY   48  31  51 W7        29.82S
W YELLOWSTONE  HVY SNOW  32  32 100 CALM      29.94S VSB 1/4
ENNIS          MOSUNNY   45  34  65 S16G25    29.90F
THREE FORKS      N/A     52  52 100 S5        29.81F
$$

MTZ009-010-012-014-046-048-049-054-231600-
EAST SLOPES AND CENTRAL MONTANA

CITY           SKY/WX    TMP DP  RH WIND       PRES   REMARKS
CUT BANK       CLOUDY    40  40 100 E6        29.80F FOG
GREAT FALLS    CLOUDY    42  40  92 NW5       29.78F
MALMSTROM AFB  CLOUDY    42  40  93 NW5       29.79S
HELENA         CLOUDY    47  38  71 CALM      29.79S
AUGUSTA        LGT RAIN  39  39 100 N8        29.80R FOG
BOWMANS CRNR   DRIZZLE   40  38  91 NE6       29.77S
CHOTEAU        FOG       41  41 100 N5        29.82S VSB 1/4
FAIRFIELD      FOG       40  39  97 NW8       29.79F VSB 3/8
POWER          FOG       40  39  99 N3        29.78F VSB 7/8
RAYNESFORD     PTSUNNY   46  38  76 W12       29.77F
ULM            PTSUNNY   42  41  95 CALM      29.78F
$$

MTZ011-013-016-021-045-047-050-051-231600-
NORTH CENTRAL MONTANA

CITY           SKY/WX    TMP DP  RH WIND       PRES   REMARKS
HAVRE          PTSUNNY   41  37  86 E22       29.81F
LEWISTOWN      CLOUDY    48  36  63 CALM      29.77F
N BAR RANCH      N/A     48  34  57 CALM      29.81F
CHINOOK          N/A     39  37  93 E15G23    29.85S WCI  31
DENTON         PTSUNNY   41  41  99 E13       29.75F FOG
FORT BENTON      N/A    N/A N/A N/A MISG      29.79F
GEYSER         PTSUNNY   42  38  87 E3        29.77F
GRASS RANGE    PTSUNNY   41  40  96 NE3       29.76F
JUDITH GAP       N/A     46  34  63 S6        29.77F
STANFORD       PTSUNNY   48  35  62 CALM      29.77F
WINIFRED       LGT RAIN  41 N/A N/A E14       29.78S VSB 3/16
$$

MTZ017>020-022>027-061-062-231600-
NORTHEAST MONTANA

CITY           SKY/WX    TMP DP  RH WIND       PRES   REMARKS
GLASGOW        CLOUDY    35  31  85 E23G31    29.89F WCI  23
JORDAN           N/A     41  37  86 SE14      29.84S
SIDNEY         CLOUDY    35  30  82 E16       29.98F WCI  25
WOLF POINT     CLOUDY    36  31  82 E20G28    29.95F WCI  25
MALTA          CLOUDY    37  34  87 E20G25    29.88F WCI  27
PLENTYWOOD       N/A     28  25  86 E22G28    30.01S WCI  15
POPLAR           N/A     34  30  86 E17G24    29.96F WCI  23
$$

MTZ028>42-056>058-231600-
SOUTHCENTRAL AND SOUTHEAST MONTANA

CITY           SKY/WX    TMP DP  RH WIND       PRES   REMARKS
BAKER          FOG       33  32  96 E18       29.89F VSB 3/4 WCI  22
BILLINGS       CLOUDY    47  40  76 CALM      29.79F
LIVINGSTON     CLOUDY    52  34  50 SW17      29.78F
MILES CITY     CLOUDY    42  38  85 NE12      29.84F
BIG TIMBER     SUNNY     43  39  87 CALM      29.82F
LAUREL           N/A     45  39  79 CALM      29.80S
ROUNDUP          N/A     48  39  71 S8        29.72F
$$

REGIONAL REPORTS...DAKOTAS

CITY           SKY/WX    TMP DP  RH WIND       PRES   REMARKS
WILLISTON      CLOUDY    31  24  75 E16G25    30.02F WCI  20
MINOT          LGT SNOW  28  24  85 E14G23    30.11F WCI  17
DICKINSON      CLOUDY    29  26  89 E20       29.93F WCI  16
BEACH          CLOUDY    32  32 100 SE18G29   29.95S FOG     WCI  20
TIOGA          CLOUDY    27  27 100 E28       30.03F WCI  11
WATFORD CITY   CLOUDY    28  28 100 E20       30.00F WCI  15
BISMARCK       CLOUDY    35  29  78 E23G31    30.03F WCI  23
GRAND FORKS    CLOUDY    35  24  64 E15       30.21S WCI  25
FARGO          CLOUDY    36  32  85 E16       30.14F WCI  26
BUFFALO SD       N/A     35 N/A N/A NE20      29.81R WCI  24
RAPID CITY     CLOUDY    51  37  58 S10       29.81F
$$

REGIONAL REPORTS...WYOMING/IDAHO/WASHINGTON

CITY           SKY/WX    TMP DP  RH WIND       PRES   REMARKS
GILLETTE       CLOUDY    51  37  58 CALM      29.84S
SHERIDAN       CLOUDY    45  37  73 CALM      29.81F
BUFFALO WY     CLOUDY    52  32  46 CALM      29.86S
CODY           PTSUNNY   50  33  52 SE9       29.83F
YELLOWSTONE LA   N/A     30  29  96 CALM      29.95F
IDAHO FALLS    PTSUNNY   47  38  71 E6        29.89F
SALMON         CLOUDY   N/A N/A N/A S9        29.80
BOISE          PTSUNNY   50  42  74 W3        29.86R
SPOKANE        CLOUDY    45  38  76 SW16      29.85S
$$

REGIONAL REPORTS...ALBERTA

CITY           SKY/WX    TMP DP  RH WIND       PRES   REMARKS
EDMONTON       LGT SNOW  28  27  93 E13       29.91F WCI  18
CALGARY        FOG       37  36  93 S2        29.78F VSB 3/4
LETHBRIDGE     CLOUDY    41  39  93 NW7       29.79F
MEDICINE HAT   CLOUDY    43  39  87 VRB2      29.80F
WATERTON GATE    N/A     45  32  61 SW9         N/A
MILK RIVER       N/A     43  41  93 S7          N/A
$$

REGIONAL REPORTS...SASKATCHEWAN

CITY           SKY/WX    TMP DP  RH WIND       PRES   REMARKS
SWIFT CURRENT  CLOUDY    34  30  86 SE23G32   29.89F WCI  22
REGINA         PTSUNNY   34  21  60 SE22      30.08S WCI  22
SASKATOON      CLOUDY    36  28  75 SE14G23   30.08F WCI  27
VAL MARIE        N/A     34  32  93 SE20G29     N/A  WCI  22
ROCKGLEN         N/A     27  27 100 SE18G25     N/A  WCI  13
ASSINIBOIA       N/A     30  28  93 E14         N/A  WCI  20
$$




USA.gov is the U.S. government's official web portal to all federal, state and local government web resources and services.